FENGYUN 1C DEB, 29977

Orbit data source: Space-Track

FENGYUN 1C DEB, 29977 is space debris in SSO originally from a launch on Mon, 10 May 1999 UTC launched from the Taiyaun Space Center, China (TSC). Fengyun 1C debris stems from the Chinese weather satellite Fengyun-1C, which was intentionally destroyed by a Chinese anti-satellite missile in 2007. This event dramatically increased the amount of space debris, with thousands of trackable fragments posing hazards to satellites and human spaceflight. The Fengyun 1C debris cloud has become a focal point in discussions about space sustainability and the need for international regulations to prevent the creation of new debris.

Loading next visibility...
Identifier
29977, 1999-025LB
Orbit
SSO
Country
Flag of CNCN / PRC
Related business
Manufacturer
Unknown
Mission
Spacecraft
Bus & Motor
Unknown
Mass
Unknown
Launch date (UTC)
1999-05-10 (27 years ago)
Launch vehicle
Unknown
Launch site
Taiyaun Space Center, China (TSC)
Object type
Payload
Rocket body
Debris
Shape & HBR
Unknown shape, 0.1 m
Radar Cross Section
Small (<0.1 m²)

Expand to show TLE details & history
Last TLE update: 1 day ago

TLE from 1 day ago
0 FENGYUN 1C DEB
1 29977U 99025LB  26165.53571054  .00001594  00000-0  92845-3 0  9999
2 29977  98.3846  19.0629 0129161  94.2078 327.7397 14.05716907989421
Epoch: 2026-06-14T12:51Z
TLE epoch observation values (Epoch: 2026-06-14T12:51:25.390Z)
Latitude
60.15069°
Longitude
-91.43012°
Altitude
805.398 km
Speed
7.497 km/s
True Right ascension
00h 17m 02s
True Declination
60° 00' 11"
Sunlit
Object was in daylight at epoch
Visualization orbit readout
Latitude
Unknown
Longitude
Unknown
Altitude
Unknown
Speed
Unknown
Apparent Right ascension
Unknown
Apparent Declination
Unknown
Sunlit
N/A
Visualization observer readout
Local Sidereal Time
05:10:38
Azimuth
Unknown
Elevation
Unknown
Doppler factor
Unknown
Orbital elements
Apogee altitude
964.861 km
Perigee altitude
777.594 km
Semi-major axis
7,249.364 km
Eccentricity
0.01292
Inclination
98.3846°
RAAN
19.0629°
Arg. of periapsis
94.2078°
True anomaly
326.93878°
Mean anomaly
327.7397°
Eccentric anomaly
327.34034°
Mean motion
3.51636 °/min
Orbital period
102.38 mins
BSTAR
0.00092845
Loading maneuver chart data...
Computing Atmospheric mass density...
Loading historical data...
Loading historical data...
Loading historical data...
Loading historical data...
Loading historical data...
Loading historical data...
Loading historical data...

Documentation

Showing up to 5 results
|